Time,TemperatureF,DewpointF,PressureIn,WindDirection,WindDirectionDegrees,WindSpeedMPH,WindSpeedGustMPH,Humidity,HourlyPrecipIn,Conditions,Clouds,dailyrainin,SoftwareType,DateUTC
2013-05-08 00:00:00,59.9,53.7,30.07,NNE,22,0.0,0.0,80,0.00,,BKN,0.00,WeatherDisplay:10.37,2013-05-08 04:00:00,
2013-05-08 00:01:00,59.9,53.7,30.07,NNE,22,0.0,0.0,80,0.00,,BKN,0.00,WeatherDisplay:10.37,2013-05-08 04:01:00,
2013-05-08 00:06:00,59.9,53.4,30.07,NNE,22,0.0,0.0,79,0.00,,BKN,0.00,WeatherDisplay:10.37,2013-05-08 04:06:00,
2013-05-08 00:11:00,59.9,53.4,30.07,NNE,22,0.0,0.0,79,0.00,,BKN,0.00,WeatherDisplay:10.37,2013-05-08 04:11:00,
2013-05-08 00:16:00,59.7,52.8,30.07,NNE,22,0.0,0.0,78,0.00,,BKN,0.00,WeatherDisplay:10.37,2013-05-08 04:16:00,
2013-05-08 00:21:00,59.5,52.6,30.07,NNE,22,0.0,0.0,78,0.00,,BKN,0.00,WeatherDisplay:10.37,2013-05-08 04:21:00,
2013-05-08 00:26:00,59.5,52.3,30.07,NNE,22,0.0,0.0,77,0.00,,BKN,0.00,WeatherDisplay:10.37,2013-05-08 04:26:00,
2013-05-08 00:31:00,59.5,52.3,30.07,NNE,22,0.0,0.0,77,0.00,,BKN,0.00,WeatherDisplay:10.37,2013-05-08 04:31:00,
2013-05-08 00:36:00,59.4,52.2,30.08,NNE,22,0.0,0.0,77,0.00,,BKN,0.00,WeatherDisplay:10.37,2013-05-08 04:36:00,
2013-05-08 00:41:00,59.2,52.0,30.08,NNE,22,0.0,0.0,77,0.00,,BKN,0.00,WeatherDisplay:10.37,2013-05-08 04:41:00,
2013-05-08 00:46:00,59.0,51.8,30.08,NNE,22,0.0,0.0,77,0.00,,BKN,0.00,WeatherDisplay:10.37,2013-05-08 04:46:00,
2013-05-08 00:51:00,58.6,51.4,30.07,NNE,22,0.0,0.0,77,0.00,,BKN,0.00,WeatherDisplay:10.37,2013-05-08 04:51:00,
2013-05-08 00:56:00,58.5,51.7,30.07,NNE,22,0.0,0.0,78,0.00,,BKN,0.00,WeatherDisplay:10.37,2013-05-08 04:56:00,
2013-05-08 01:01:00,58.1,51.3,30.07,NNE,22,0.0,0.0,78,0.00,,BKN,0.00,WeatherDisplay:10.37,2013-05-08 05:01:00,
2013-05-08 01:06:00,57.9,51.4,30.07,NNE,22,0.0,0.0,79,0.00,,BKN,0.00,WeatherDisplay:10.37,2013-05-08 05:06:00,
2013-05-08 01:11:00,57.9,52.4,30.07,NNE,22,0.0,0.0,82,0.00,,BKN,0.00,WeatherDisplay:10.37,2013-05-08 05:11:00,
2013-05-08 01:16:00,57.7,51.9,30.07,NNE,22,0.0,0.0,81,0.00,,BKN,0.00,WeatherDisplay:10.37,2013-05-08 05:16:00,
2013-05-08 01:21:00,57.6,51.8,30.07,NNE,22,0.0,0.0,81,0.00,,BKN,0.00,WeatherDisplay:10.37,2013-05-08 05:21:00,
2013-05-08 01:26:00,57.6,52.1,30.07,NNE,22,0.0,0.0,82,0.00,,BKN,0.00,WeatherDisplay:10.37,2013-05-08 05:26:00,
2013-05-08 01:31:00,57.2,51.4,30.07,NNE,22,0.0,0.0,81,0.00,,BKN,0.00,WeatherDisplay:10.37,2013-05-08 05:31:00,
2013-05-08 01:36:00,57.0,51.6,30.07,NNE,22,0.0,0.0,82,0.00,,BKN,0.00,WeatherDisplay:10.37,2013-05-08 05:36:00,
2013-05-08 01:41:00,56.8,52.0,30.07,NNE,22,0.0,0.0,84,0.00,,BKN,0.00,WeatherDisplay:10.37,2013-05-08 05:41:00,
2013-05-08 01:46:00,56.7,51.6,30.07,NNE,22,0.0,0.0,83,0.00,,BKN,0.00,WeatherDisplay:10.37,2013-05-08 05:46:00,
2013-05-08 01:51:00,56.5,51.7,30.07,NNE,22,0.0,0.0,84,0.00,,BKN,0.00,WeatherDisplay:10.37,2013-05-08 05:51:00,
2013-05-08 01:56:00,56.3,51.5,30.07,NNE,22,0.0,0.0,84,0.00,,BKN,0.00,WeatherDisplay:10.37,2013-05-08 05:56:00,
2013-05-08 02:01:00,56.1,51.3,30.07,NNE,22,0.0,0.0,84,0.00,,BKN,0.00,WeatherDisplay:10.37,2013-05-08 06:01:00,
2013-05-08 02:06:00,55.9,51.5,30.07,NNE,22,0.0,0.0,85,0.00,,BKN,0.00,WeatherDisplay:10.37,2013-05-08 06:06:00,
2013-05-08 02:11:00,55.9,51.5,30.07,NNE,22,0.0,0.0,85,0.00,,BKN,0.00,WeatherDisplay:10.37,2013-05-08 06:11:00,
2013-05-08 02:16:00,55.9,51.5,30.07,NNE,22,0.0,0.0,85,0.00,,BKN,0.00,WeatherDisplay:10.37,2013-05-08 06:16:00,
2013-05-08 02:21:00,55.9,51.8,30.07,NNE,22,0.0,0.0,86,0.00,,BKN,0.00,WeatherDisplay:10.37,2013-05-08 06:21:00,
2013-05-08 02:26:00,55.9,51.8,30.07,NNE,22,0.0,0.0,86,0.00,,BKN,0.00,WeatherDisplay:10.37,2013-05-08 06:26:00,
2013-05-08 02:31:00,55.8,51.7,30.07,NNE,22,0.0,0.0,86,0.00,,BKN,0.00,WeatherDisplay:10.37,2013-05-08 06:31:00,
2013-05-08 02:36:00,55.8,51.7,30.06,NNE,22,0.0,0.0,86,0.00,,BKN,0.00,WeatherDisplay:10.37,2013-05-08 06:36:00,
2013-05-08 02:41:00,55.8,52.0,30.06,NNE,22,0.0,0.0,87,0.00,,BKN,0.00,WeatherDisplay:10.37,2013-05-08 06:41:00,
2013-05-08 02:46:00,55.6,51.8,30.06,NNE,22,0.0,0.0,87,0.00,,BKN,0.00,WeatherDisplay:10.37,2013-05-08 06:46:00,
2013-05-08 02:52:00,55.6,51.8,30.06,NNE,22,0.0,0.0,87,0.00,,BKN,0.00,WeatherDisplay:10.37,2013-05-08 06:52:00,
2013-05-08 02:57:00,55.6,51.8,30.06,NNE,22,0.0,0.0,87,0.00,,BKN,0.00,WeatherDisplay:10.37,2013-05-08 06:57:00,
2013-05-08 03:02:00,55.4,51.9,30.06,NNE,22,0.0,0.0,88,0.00,,BKN,0.00,WeatherDisplay:10.37,2013-05-08 07:02:00,
2013-05-08 03:07:00,55.4,51.9,30.06,NNE,22,0.0,0.0,88,0.00,,BKN,0.00,WeatherDisplay:10.37,2013-05-08 07:07:00,
2013-05-08 03:12:00,55.4,51.6,30.06,NNE,22,0.0,0.0,87,0.00,,BKN,0.00,WeatherDisplay:10.37,2013-05-08 07:12:00,
2013-05-08 03:17:00,55.4,51.6,30.06,NNE,22,0.0,0.0,87,0.00,,BKN,0.00,WeatherDisplay:10.37,2013-05-08 07:17:00,
2013-05-08 03:22:00,55.4,51.9,30.06,NNE,22,0.0,0.0,88,0.00,,BKN,0.00,WeatherDisplay:10.37,2013-05-08 07:22:00,
2013-05-08 03:27:00,55.4,52.8,30.06,NNE,22,0.0,0.0,91,0.00,,BKN,0.00,WeatherDisplay:10.37,2013-05-08 07:27:00,
2013-05-08 03:32:00,55.6,52.7,30.06,NNE,22,0.0,0.0,90,0.00,,BKN,0.00,WeatherDisplay:10.37,2013-05-08 07:32:00,
2013-05-08 03:37:00,55.6,52.7,30.06,NNE,22,0.0,0.0,90,0.00,,BKN,0.00,WeatherDisplay:10.37,2013-05-08 07:37:00,
2013-05-08 03:42:00,55.4,52.5,30.06,NNE,22,0.0,0.0,90,0.00,,BKN,0.00,WeatherDisplay:10.37,2013-05-08 07:42:00,
2013-05-08 03:47:00,55.6,53.3,30.07,NNE,22,0.0,0.0,92,0.00,,BKN,0.00,WeatherDisplay:10.37,2013-05-08 07:47:00,
2013-05-08 03:52:00,55.8,53.8,30.07,NNE,22,0.0,0.0,93,0.00,,BKN,0.00,WeatherDisplay:10.37,2013-05-08 07:52:00,
2013-05-08 03:57:00,55.9,53.3,30.07,NNE,22,0.0,0.0,91,0.00,,BKN,0.00,WeatherDisplay:10.37,2013-05-08 07:57:00,
2013-05-08 04:02:00,56.5,53.6,30.07,NNE,22,0.0,0.0,90,0.00,,BKN,0.00,WeatherDisplay:10.37,2013-05-08 08:02:00,
2013-05-08 04:07:00,56.3,53.4,30.07,NNE,22,0.0,0.0,90,0.00,,BKN,0.00,WeatherDisplay:10.37,2013-05-08 08:07:00,
2013-05-08 04:12:00,56.3,53.4,30.07,NNE,22,0.0,0.0,90,0.00,,BKN,0.00,WeatherDisplay:10.37,2013-05-08 08:12:00,
2013-05-08 04:17:00,56.1,53.2,30.07,NNE,22,0.0,0.0,90,0.00,,BKN,0.00,WeatherDisplay:10.37,2013-05-08 08:17:00,
2013-05-08 04:22:00,56.1,53.5,30.07,NNE,22,0.0,0.0,91,0.00,,BKN,0.00,WeatherDisplay:10.37,2013-05-08 08:22:00,
2013-05-08 04:27:00,56.1,53.5,30.07,NNE,22,0.0,0.0,91,0.00,,BKN,0.00,WeatherDisplay:10.37,2013-05-08 08:27:00,
2013-05-08 04:32:00,55.9,53.3,30.07,NNE,22,0.0,0.0,91,0.00,,BKN,0.00,WeatherDisplay:10.37,2013-05-08 08:32:00,
2013-05-08 04:37:00,55.6,52.7,30.07,NNE,22,0.0,0.0,90,0.00,,BKN,0.00,WeatherDisplay:10.37,2013-05-08 08:37:00,
2013-05-08 04:42:00,55.4,52.5,30.07,NNE,22,0.0,0.0,90,0.00,,BKN,0.00,WeatherDisplay:10.37,2013-05-08 08:42:00,
2013-05-08 04:47:00,55.2,52.3,30.07,NNE,22,0.0,0.0,90,0.00,,BKN,0.00,WeatherDisplay:10.37,2013-05-08 08:47:00,
2013-05-08 04:52:00,55.0,52.1,30.07,NNE,22,0.0,0.0,90,0.00,,BKN,0.00,WeatherDisplay:10.37,2013-05-08 08:52:00,
2013-05-08 04:57:00,55.0,52.4,30.07,NNE,22,0.0,0.0,91,0.00,,BKN,0.00,WeatherDisplay:10.37,2013-05-08 08:57:00,
2013-05-08 05:02:00,55.0,52.4,30.08,NNE,22,0.0,0.0,91,0.00,,BKN,0.00,WeatherDisplay:10.37,2013-05-08 09:02:00,
2013-05-08 05:07:00,54.9,52.3,30.08,NNE,22,0.0,0.0,91,0.00,,BKN,0.00,WeatherDisplay:10.37,2013-05-08 09:07:00,
2013-05-08 05:12:00,54.9,52.3,30.08,NNE,22,0.0,0.0,91,0.00,,BKN,0.00,WeatherDisplay:10.37,2013-05-08 09:12:00,
2013-05-08 05:17:00,54.9,52.3,30.08,NNE,22,0.0,0.0,91,0.00,,BKN,0.00,WeatherDisplay:10.37,2013-05-08 09:17:00,
2013-05-08 05:22:00,54.5,51.9,30.08,NNE,22,0.0,0.0,91,0.00,,BKN,0.00,WeatherDisplay:10.37,2013-05-08 09:22:00,
2013-05-08 05:27:00,54.1,51.5,30.08,NNE,22,0.0,0.0,91,0.00,,BKN,0.00,WeatherDisplay:10.37,2013-05-08 09:27:00,
2013-05-08 05:32:00,54.0,51.4,30.08,NNE,22,0.0,0.0,91,0.00,,BKN,0.00,WeatherDisplay:10.37,2013-05-08 09:32:00,
2013-05-08 05:37:00,53.8,51.2,30.08,NNE,22,0.0,0.0,91,0.00,,BKN,0.00,WeatherDisplay:10.37,2013-05-08 09:37:00,
2013-05-08 05:42:00,53.4,50.8,30.08,NNE,22,0.0,0.0,91,0.00,,BKN,0.00,WeatherDisplay:10.37,2013-05-08 09:42:00,
2013-05-08 05:47:00,53.2,50.6,30.08,NNE,22,0.0,0.0,91,0.00,,BKN,0.00,WeatherDisplay:10.37,2013-05-08 09:47:00,
2013-05-08 05:52:00,53.1,50.5,30.08,NNE,22,0.0,0.0,91,0.00,,BKN,0.00,WeatherDisplay:10.37,2013-05-08 09:52:00,
2013-05-08 05:57:00,52.9,50.6,30.08,NNE,22,0.0,0.0,92,0.00,,BKN,0.00,WeatherDisplay:10.37,2013-05-08 09:57:00,
2013-05-08 06:02:00,52.7,50.4,30.08,NNE,22,0.0,0.0,92,0.00,,BKN,0.00,WeatherDisplay:10.37,2013-05-08 10:02:00,
2013-05-08 06:07:00,52.5,50.2,30.08,NNE,22,0.0,0.0,92,0.00,,BKN,0.00,WeatherDisplay:10.37,2013-05-08 10:07:00,
2013-05-08 06:12:00,52.3,50.0,30.08,NNE,22,0.0,0.0,92,0.00,,BKN,0.00,WeatherDisplay:10.37,2013-05-08 10:12:00,
2013-05-08 06:17:00,52.3,50.0,30.08,NNE,22,0.0,0.0,92,0.00,,BKN,0.00,WeatherDisplay:10.37,2013-05-08 10:17:00,
2013-05-08 06:22:00,52.3,50.0,30.08,NNE,22,0.0,0.0,92,0.00,,BKN,0.00,WeatherDisplay:10.37,2013-05-08 10:22:00,
2013-05-08 06:27:00,52.3,50.0,30.08,NNE,22,0.0,0.0,92,0.00,,BKN,0.00,WeatherDisplay:10.37,2013-05-08 10:27:00,
2013-05-08 06:32:00,52.3,50.0,30.08,NNE,22,0.0,0.0,92,0.00,,BKN,0.00,WeatherDisplay:10.37,2013-05-08 10:32:00,
2013-05-08 06:37:00,52.7,50.7,30.08,NNE,22,0.0,0.0,93,0.00,,BKN,0.00,WeatherDisplay:10.37,2013-05-08 10:37:00,
2013-05-08 06:42:00,52.9,51.2,30.08,NNE,22,0.0,0.0,94,0.00,,BKN,0.00,WeatherDisplay:10.37,2013-05-08 10:42:00,
2013-05-08 06:47:00,53.6,51.9,30.09,NNE,22,0.0,0.0,94,0.00,,BKN,0.00,WeatherDisplay:10.37,2013-05-08 10:47:00,
2013-05-08 06:52:00,55.2,52.6,30.09,NNE,22,1.1,1.1,91,0.00,,BKN,0.00,WeatherDisplay:10.37,2013-05-08 10:52:00,
2013-05-08 06:57:00,55.2,52.6,30.09,NNE,22,0.0,0.0,91,0.00,,BKN,0.00,WeatherDisplay:10.37,2013-05-08 10:57:00,
2013-05-08 07:02:00,55.2,52.9,30.09,NNE,22,0.0,0.0,92,0.00,,BKN,0.00,WeatherDisplay:10.37,2013-05-08 11:02:00,
2013-05-08 07:07:00,55.4,53.1,30.09,NNE,22,0.0,0.0,92,0.00,,BKN,0.00,WeatherDisplay:10.37,2013-05-08 11:07:00,
2013-05-08 07:12:00,55.8,53.8,30.09,NNE,22,0.0,0.0,93,0.00,,BKN,0.00,WeatherDisplay:10.37,2013-05-08 11:12:00,
2013-05-08 07:17:00,55.8,53.8,30.09,NNE,22,0.0,0.0,93,0.00,,BKN,0.00,WeatherDisplay:10.37,2013-05-08 11:17:00,
2013-05-08 07:22:00,55.8,53.8,30.09,NNE,22,0.0,0.0,93,0.00,,BKN,0.00,WeatherDisplay:10.37,2013-05-08 11:22:00,
2013-05-08 07:27:00,55.9,53.9,30.09,NNE,22,0.0,0.0,93,0.00,,BKN,0.00,WeatherDisplay:10.37,2013-05-08 11:27:00,
2013-05-08 07:32:00,56.5,54.5,30.09,NNE,22,0.0,0.0,93,0.00,,BKN,0.00,WeatherDisplay:10.37,2013-05-08 11:32:00,
2013-05-08 07:37:00,57.0,54.1,30.10,NNE,22,0.0,0.0,90,0.00,,BKN,0.00,WeatherDisplay:10.37,2013-05-08 11:37:00,
2013-05-08 07:42:00,57.6,54.7,30.10,NNE,22,0.0,0.0,90,0.00,,BKN,0.00,WeatherDisplay:10.37,2013-05-08 11:42:00,
2013-05-08 07:47:00,57.7,54.8,30.10,NNE,22,0.0,0.0,90,0.00,,BKN,0.00,WeatherDisplay:10.37,2013-05-08 11:47:00,
2013-05-08 07:52:00,57.9,55.0,30.10,NNE,22,0.0,0.0,90,0.00,,BKN,0.00,WeatherDisplay:10.37,2013-05-08 11:52:00,
2013-05-08 07:57:00,58.5,55.6,30.10,NNE,22,0.0,0.0,90,0.00,,BKN,0.00,WeatherDisplay:10.37,2013-05-08 11:57:00,
2013-05-08 08:02:00,58.5,55.3,30.10,ESE,112,1.1,1.1,89,0.00,,BKN,0.00,WeatherDisplay:10.37,2013-05-08 12:02:00,
2013-05-08 08:07:00,59.0,55.8,30.10,ESE,112,0.0,1.1,89,0.00,,BKN,0.00,WeatherDisplay:10.37,2013-05-08 12:07:00,
2013-05-08 08:12:00,59.4,56.2,30.10,ESE,112,1.2,1.7,89,0.00,,BKN,0.00,WeatherDisplay:10.37,2013-05-08 12:12:00,
2013-05-08 08:17:00,59.7,55.8,30.10,SE,135,0.3,2.2,87,0.00,,BKN,0.00,WeatherDisplay:10.37,2013-05-08 12:17:00,
2013-05-08 08:22:00,60.3,56.4,30.10,ESE,112,1.6,2.3,87,0.00,,BKN,0.00,WeatherDisplay:10.37,2013-05-08 12:22:00,
2013-05-08 08:27:00,61.2,56.7,30.09,ESE,112,1.4,1.4,85,0.00,,BKN,0.00,WeatherDisplay:10.37,2013-05-08 12:27:00,
2013-05-08 08:32:00,61.9,57.3,30.09,ESE,112,0.0,0.0,85,0.00,,BKN,0.00,WeatherDisplay:10.37,2013-05-08 12:32:00,
2013-05-08 08:37:00,62.6,57.7,30.10,ESE,112,0.0,0.0,84,0.00,,BKN,0.00,WeatherDisplay:10.37,2013-05-08 12:37:00,
2013-05-08 08:42:00,63.0,57.1,30.10,SSE,158,0.6,2.3,81,0.00,,BKN,0.00,WeatherDisplay:10.37,2013-05-08 12:42:00,
2013-05-08 08:47:00,63.5,57.2,30.10,SSE,158,1.2,2.3,80,0.00,,BKN,0.00,WeatherDisplay:10.37,2013-05-08 12:47:00,
2013-05-08 08:52:00,63.9,56.5,30.10,ESE,112,1.8,2.3,77,0.00,,BKN,0.00,WeatherDisplay:10.37,2013-05-08 12:52:00,
2013-05-08 08:57:00,64.0,56.3,30.10,ESE,112,2.7,2.7,76,0.00,,BKN,0.00,WeatherDisplay:10.37,2013-05-08 12:57:00,
2013-05-08 09:02:00,64.2,56.8,30.10,ESE,112,0.0,0.0,77,0.00,,BKN,0.00,WeatherDisplay:10.37,2013-05-08 13:02:00,
2013-05-08 09:07:00,64.4,57.0,30.10,ESE,112,0.0,0.0,77,0.00,,BKN,0.00,WeatherDisplay:10.37,2013-05-08 13:07:00,
2013-05-08 09:12:00,64.6,57.9,30.10,SE,135,0.0,0.0,79,0.00,,BKN,0.00,WeatherDisplay:10.37,2013-05-08 13:12:00,
2013-05-08 09:17:00,64.8,57.4,30.10,SE,135,0.0,0.0,77,0.00,,BKN,0.00,WeatherDisplay:10.37,2013-05-08 13:17:00,
2013-05-08 09:22:00,65.5,58.1,30.10,SE,135,0.0,0.0,77,0.00,,BKN,0.00,WeatherDisplay:10.37,2013-05-08 13:22:00,
2013-05-08 09:27:00,66.0,58.2,30.10,SE,135,0.0,0.0,76,0.00,,BKN,0.00,WeatherDisplay:10.37,2013-05-08 13:27:00,
2013-05-08 09:32:00,66.6,59.2,30.10,SE,135,0.0,0.0,77,0.00,,BKN,0.00,WeatherDisplay:10.37,2013-05-08 13:32:00,
2013-05-08 09:37:00,66.6,58.1,30.10,East,90,0.8,2.3,74,0.00,,BKN,0.00,WeatherDisplay:10.37,2013-05-08 13:37:00,
2013-05-08 09:42:00,65.7,57.9,30.10,East,90,0.0,0.0,76,0.00,,BKN,0.00,WeatherDisplay:10.37,2013-05-08 13:42:00,
2013-05-08 09:47:00,67.1,58.2,30.09,ESE,112,2.5,3.5,73,0.00,,BKN,0.00,WeatherDisplay:10.37,2013-05-08 13:47:00,
2013-05-08 09:52:00,67.6,58.6,30.09,ENE,68,0.0,0.0,73,0.00,,BKN,0.00,WeatherDisplay:10.37,2013-05-08 13:52:00,
2013-05-08 09:57:00,67.6,58.6,30.09,ENE,68,1.5,2.3,73,0.00,,BKN,0.00,WeatherDisplay:10.37,2013-05-08 13:57:00,
2013-05-08 10:03:00,67.6,58.6,30.09,ENE,68,0.0,1.1,73,0.00,,BKN,0.00,WeatherDisplay:10.37,2013-05-08 14:03:00,
2013-05-08 10:08:00,67.6,59.8,30.09,ENE,68,0.0,0.0,76,0.00,,BKN,0.00,WeatherDisplay:10.37,2013-05-08 14:08:00,
2013-05-08 10:13:00,68.0,59.4,30.09,ENE,68,0.0,0.0,74,0.00,,BKN,0.00,WeatherDisplay:10.37,2013-05-08 14:13:00,
2013-05-08 10:18:00,68.5,60.6,30.09,ENE,68,0.0,0.0,76,0.00,,BKN,0.00,WeatherDisplay:10.37,2013-05-08 14:18:00,
2013-05-08 10:23:00,69.1,58.9,30.09,East,90,0.5,1.1,70,0.00,,BKN,0.00,WeatherDisplay:10.37,2013-05-08 14:23:00,
2013-05-08 10:28:00,69.6,59.8,30.09,ESE,112,0.3,1.1,71,0.00,,BKN,0.00,WeatherDisplay:10.37,2013-05-08 14:28:00,
2013-05-08 10:33:00,69.8,60.4,30.09,ESE,112,0.0,0.0,72,0.00,,BKN,0.00,WeatherDisplay:10.37,2013-05-08 14:33:00,
2013-05-08 10:38:00,69.4,62.6,30.09,SE,135,0.3,1.1,79,0.00,,BKN,0.00,WeatherDisplay:10.37,2013-05-08 14:38:00,
2013-05-08 10:43:00,69.1,61.9,30.09,ESE,112,1.5,2.3,78,0.00,,BKN,0.00,WeatherDisplay:10.37,2013-05-08 14:43:00,
2013-05-08 10:48:00,67.8,60.7,30.08,East,90,1.3,1.3,78,0.01,RA,BKN,0.01,WeatherDisplay:10.37,2013-05-08 14:48:00,
2013-05-08 10:53:00,65.7,60.1,30.08,ESE,112,2.0,2.7,82,0.01,RA,BKN,0.01,WeatherDisplay:10.37,2013-05-08 14:53:00,
2013-05-08 10:58:00,66.6,60.9,30.08,NE,45,2.3,3.2,82,0.01,,BKN,0.01,WeatherDisplay:10.37,2013-05-08 14:58:00,
2013-05-08 11:03:00,66.6,59.9,30.08,ESE,112,2.1,3.5,79,0.01,,BKN,0.01,WeatherDisplay:10.37,2013-05-08 15:03:00,
2013-05-08 11:08:00,67.3,62.3,30.08,ESE,112,0.5,2.3,84,0.01,,BKN,0.01,WeatherDisplay:10.37,2013-05-08 15:08:00,
2013-05-08 11:13:00,68.4,61.3,30.08,ESE,112,1.6,2.7,78,0.01,,BKN,0.01,WeatherDisplay:10.37,2013-05-08 15:13:00,
2013-05-08 11:18:00,68.7,61.2,30.08,ESE,112,1.3,1.7,77,0.01,,BKN,0.01,WeatherDisplay:10.37,2013-05-08 15:18:00,
2013-05-08 11:23:00,67.3,60.6,30.08,East,90,2.2,2.3,79,0.01,,BKN,0.01,WeatherDisplay:10.37,2013-05-08 15:23:00,
2013-05-08 11:28:00,67.3,60.6,30.08,East,90,2.2,2.3,79,0.01,,BKN,0.01,WeatherDisplay:10.37,2013-05-08 15:28:00,
2013-05-08 11:33:00,67.5,60.4,30.08,East,90,2.1,2.3,78,0.01,,BKN,0.01,WeatherDisplay:10.37,2013-05-08 15:33:00,
2013-05-08 11:38:00,67.5,60.8,30.08,South,180,0.0,0.0,79,0.01,,BKN,0.01,WeatherDisplay:10.37,2013-05-08 15:38:00,
2013-05-08 11:43:00,67.8,60.3,30.08,North,360,0.0,0.0,77,0.01,,BKN,0.01,WeatherDisplay:10.37,2013-05-08 15:43:00,
2013-05-08 11:48:00,67.6,60.1,30.07,East,90,1.2,1.7,77,0.00,,BKN,0.01,WeatherDisplay:10.37,2013-05-08 15:48:00,
2013-05-08 11:53:00,68.2,61.1,30.07,ESE,112,2.4,2.7,78,0.00,,BKN,0.01,WeatherDisplay:10.37,2013-05-08 15:53:00,
2013-05-08 11:58:00,69.1,60.8,30.07,ESE,112,1.8,2.3,75,0.00,,BKN,0.01,WeatherDisplay:10.37,2013-05-08 15:58:00,
2013-05-08 12:03:00,70.3,61.2,30.06,ESE,112,2.8,3.5,73,0.00,,BKN,0.01,WeatherDisplay:10.37,2013-05-08 16:03:00,
2013-05-08 12:08:00,70.2,60.4,30.06,South,180,2.0,2.3,71,0.00,,BKN,0.01,WeatherDisplay:10.37,2013-05-08 16:08:00,
2013-05-08 12:13:00,71.1,62.0,30.06,ESE,112,0.5,2.3,73,0.00,,BKN,0.01,WeatherDisplay:10.37,2013-05-08 16:13:00,
2013-05-08 12:18:00,72.1,60.5,30.06,ESE,112,2.3,3.5,67,0.00,,BKN,0.01,WeatherDisplay:10.37,2013-05-08 16:18:00,
2013-05-08 12:23:00,71.6,62.1,30.06,ESE,112,0.0,0.0,72,0.00,,BKN,0.01,WeatherDisplay:10.37,2013-05-08 16:23:00,
2013-05-08 12:28:00,71.6,62.5,30.06,ESE,112,1.3,1.7,73,0.00,,BKN,0.01,WeatherDisplay:10.37,2013-05-08 16:28:00,
2013-05-08 12:33:00,71.8,62.3,30.06,ESE,112,0.0,0.0,72,0.00,,BKN,0.01,WeatherDisplay:10.37,2013-05-08 16:33:00,
2013-05-08 12:38:00,71.8,61.5,30.05,SE,135,0.0,0.0,70,0.00,,BKN,0.01,WeatherDisplay:10.37,2013-05-08 16:38:00,
2013-05-08 12:43:00,71.6,61.3,30.05,South,180,0.0,0.0,70,0.00,,BKN,0.01,WeatherDisplay:10.37,2013-05-08 16:43:00,
2013-05-08 12:48:00,71.6,62.1,30.05,South,180,0.0,0.0,72,0.00,,BKN,0.01,WeatherDisplay:10.37,2013-05-08 16:48:00,
2013-05-08 12:53:00,71.2,62.5,30.05,South,180,0.0,0.0,74,0.00,,BKN,0.01,WeatherDisplay:10.37,2013-05-08 16:53:00,
2013-05-08 12:58:00,71.2,62.1,30.05,South,180,0.0,0.0,73,0.00,,BKN,0.01,WeatherDisplay:10.37,2013-05-08 16:58:00,
2013-05-08 13:03:00,70.9,62.6,30.06,South,180,0.0,0.0,75,0.00,,BKN,0.01,WeatherDisplay:10.37,2013-05-08 17:03:00,
2013-05-08 13:08:00,70.0,63.5,30.06,South,180,0.0,0.0,80,0.00,,BKN,0.01,WeatherDisplay:10.37,2013-05-08 17:08:00,
2013-05-08 13:13:00,69.8,63.7,30.05,South,180,0.0,0.0,81,0.00,,BKN,0.01,WeatherDisplay:10.37,2013-05-08 17:13:00,
2013-05-08 13:18:00,69.4,64.0,30.05,South,180,0.0,0.0,83,0.00,,BKN,0.01,WeatherDisplay:10.37,2013-05-08 17:18:00,
2013-05-08 13:23:00,69.3,64.3,30.06,South,180,0.0,0.0,84,0.00,,BKN,0.01,WeatherDisplay:10.37,2013-05-08 17:23:00,
2013-05-08 13:28:00,69.3,64.3,30.06,South,180,0.0,0.0,84,0.01,RA,BKN,0.02,WeatherDisplay:10.37,2013-05-08 17:28:00,
2013-05-08 13:33:00,69.1,64.4,30.06,South,180,0.0,0.0,85,0.02,RA,BKN,0.03,WeatherDisplay:10.37,2013-05-08 17:33:00,
2013-05-08 13:38:00,68.9,63.9,30.05,South,180,0.0,0.0,84,0.02,RA,BKN,0.03,WeatherDisplay:10.37,2013-05-08 17:38:00,
2013-05-08 13:43:00,67.6,63.6,30.05,ESE,112,0.0,0.0,87,0.04,RA,BKN,0.05,WeatherDisplay:10.37,2013-05-08 17:43:00,
2013-05-08 13:48:00,67.1,62.8,30.06,ESE,112,2.6,4.6,86,0.05,RA,BKN,0.06,WeatherDisplay:10.37,2013-05-08 17:48:00,
2013-05-08 13:53:00,65.5,62.5,30.06,East,90,2.7,3.5,90,0.05,RA,BKN,0.06,WeatherDisplay:10.37,2013-05-08 17:53:00,
2013-05-08 13:58:00,64.8,61.8,30.06,ESE,112,1.8,2.3,90,0.06,RA,BKN,0.07,WeatherDisplay:10.37,2013-05-08 17:58:00,
2013-05-08 14:03:00,65.3,62.3,30.05,ESE,112,2.2,2.3,90,0.06,RA,BKN,0.07,WeatherDisplay:10.37,2013-05-08 18:03:00,
2013-05-08 14:08:00,66.0,62.7,30.05,ESE,112,1.7,2.3,89,0.06,,BKN,0.07,WeatherDisplay:10.37,2013-05-08 18:08:00,
2013-05-08 14:13:00,66.0,63.0,30.05,ESE,112,1.3,2.7,90,0.06,,BKN,0.07,WeatherDisplay:10.37,2013-05-08 18:13:00,
2013-05-08 14:18:00,66.4,62.7,30.05,ESE,112,2.1,2.3,88,0.06,,BKN,0.07,WeatherDisplay:10.37,2013-05-08 18:18:00,
2013-05-08 14:23:00,67.3,63.3,30.05,East,90,1.8,2.3,87,0.06,,BKN,0.07,WeatherDisplay:10.37,2013-05-08 18:23:00,
2013-05-08 14:28:00,68.0,63.7,30.05,East,90,2.1,2.3,86,0.05,,BKN,0.07,WeatherDisplay:10.37,2013-05-08 18:28:00,
2013-05-08 14:33:00,67.6,63.9,30.05,East,90,0.2,1.1,88,0.04,,BKN,0.07,WeatherDisplay:10.37,2013-05-08 18:33:00,
2013-05-08 14:38:00,67.6,63.9,30.05,ESE,112,0.3,1.1,88,0.04,,BKN,0.07,WeatherDisplay:10.37,2013-05-08 18:38:00,
2013-05-08 14:43:00,67.6,63.9,30.05,WNW,292,0.9,2.2,88,0.02,,BKN,0.07,WeatherDisplay:10.37,2013-05-08 18:43:00,
2013-05-08 14:48:00,67.3,63.6,30.04,ESE,112,1.8,1.8,88,0.01,,BKN,0.07,WeatherDisplay:10.37,2013-05-08 18:48:00,
2013-05-08 14:53:00,66.7,63.0,30.04,ESE,112,1.1,2.3,88,0.02,RA,BKN,0.08,WeatherDisplay:10.37,2013-05-08 18:53:00,
2013-05-08 14:58:00,66.4,63.1,30.04,WSW,248,1.4,2.3,89,0.02,RA,BKN,0.09,WeatherDisplay:10.37,2013-05-08 18:58:00,
2013-05-08 15:03:00,65.5,62.5,30.03,South,180,0.6,2.2,90,0.03,RA,BKN,0.10,WeatherDisplay:10.37,2013-05-08 19:03:00,
2013-05-08 15:08:00,65.1,62.4,30.03,ESE,112,1.4,2.3,91,0.04,RA,BKN,0.11,WeatherDisplay:10.37,2013-05-08 19:08:00,
2013-05-08 15:13:00,64.9,62.2,30.04,NNW,338,0.9,2.3,91,0.04,RA,BKN,0.11,WeatherDisplay:10.37,2013-05-08 19:13:00,
2013-05-08 15:18:00,65.3,62.9,30.04,ESE,112,1.7,2.3,92,0.04,,BKN,0.11,WeatherDisplay:10.37,2013-05-08 19:18:00,
2013-05-08 15:23:00,65.5,63.1,30.03,ESE,112,0.0,0.0,92,0.04,,BKN,0.11,WeatherDisplay:10.37,2013-05-08 19:23:00,
2013-05-08 15:28:00,65.5,63.1,30.03,ESE,112,0.0,0.0,92,0.04,,BKN,0.11,WeatherDisplay:10.37,2013-05-08 19:28:00,
2013-05-08 15:33:00,65.1,62.4,30.03,ESE,112,0.0,0.0,91,0.05,RA,BKN,0.12,WeatherDisplay:10.37,2013-05-08 19:33:00,
2013-05-08 15:38:00,65.1,62.4,30.02,ESE,112,0.0,0.0,91,0.05,RA,BKN,0.13,WeatherDisplay:10.37,2013-05-08 19:38:00,
2013-05-08 15:43:00,65.1,62.4,30.02,NE,45,0.1,1.1,91,0.06,RA,BKN,0.13,WeatherDisplay:10.37,2013-05-08 19:43:00,
2013-05-08 15:48:00,65.1,62.4,30.02,ESE,112,0.6,2.3,91,0.06,RA,BKN,0.13,WeatherDisplay:10.37,2013-05-08 19:48:00,
2013-05-08 15:53:00,65.3,62.6,30.02,ESE,112,2.2,2.3,91,0.05,,BKN,0.13,WeatherDisplay:10.37,2013-05-08 19:53:00,
2013-05-08 15:58:00,65.3,62.6,30.02,ESE,112,0.0,0.0,91,0.04,,BKN,0.13,WeatherDisplay:10.37,2013-05-08 19:58:00,
2013-05-08 16:03:00,65.8,63.1,30.01,ESE,112,0.1,1.1,91,0.03,,BKN,0.13,WeatherDisplay:10.37,2013-05-08 20:03:00,
2013-05-08 16:08:00,65.5,63.1,30.01,ESE,112,2.1,2.3,92,0.02,,BKN,0.13,WeatherDisplay:10.37,2013-05-08 20:08:00,
2013-05-08 16:13:00,66.4,64.0,30.00,ESE,112,2.0,3.2,92,0.02,,BKN,0.13,WeatherDisplay:10.37,2013-05-08 20:13:00,
2013-05-08 16:18:00,66.9,64.2,30.00,NE,45,1.6,2.3,91,0.02,,BKN,0.13,WeatherDisplay:10.37,2013-05-08 20:18:00,
2013-05-08 16:23:00,67.5,64.8,30.00,ESE,112,2.5,3.5,91,0.02,,BKN,0.13,WeatherDisplay:10.37,2013-05-08 20:23:00,
2013-05-08 16:28:00,67.3,64.6,30.00,SE,135,2.7,2.7,91,0.02,,BKN,0.13,WeatherDisplay:10.37,2013-05-08 20:28:00,
2013-05-08 16:33:00,67.6,64.2,30.00,ESE,112,3.2,3.5,89,0.01,,BKN,0.13,WeatherDisplay:10.37,2013-05-08 20:33:00,
2013-05-08 16:38:00,67.6,64.2,30.00,East,90,1.8,1.8,89,0.01,,BKN,0.13,WeatherDisplay:10.37,2013-05-08 20:38:00,
2013-05-08 16:43:00,68.4,64.0,30.00,East,90,2.6,3.2,86,0.00,,BKN,0.13,WeatherDisplay:10.37,2013-05-08 20:43:00,
2013-05-08 16:48:00,68.0,64.0,30.00,East,90,2.5,3.5,87,0.00,,BKN,0.13,WeatherDisplay:10.37,2013-05-08 20:48:00,
2013-05-08 16:53:00,67.8,64.1,30.00,ESE,112,2.3,3.2,88,0.00,,BKN,0.13,WeatherDisplay:10.37,2013-05-08 20:53:00,
2013-05-08 16:58:00,69.4,64.4,29.99,ESE,112,2.3,2.7,84,0.00,,BKN,0.13,WeatherDisplay:10.37,2013-05-08 20:58:00,
2013-05-08 17:03:00,69.4,63.3,29.99,ESE,112,2.8,3.5,81,0.00,,BKN,0.13,WeatherDisplay:10.37,2013-05-08 21:03:00,
2013-05-08 17:08:00,69.4,63.7,29.99,ESE,112,2.7,2.7,82,0.00,,BKN,0.13,WeatherDisplay:10.37,2013-05-08 21:08:00,
2013-05-08 17:13:00,69.3,63.2,29.99,ESE,112,3.1,3.5,81,0.00,,BKN,0.13,WeatherDisplay:10.37,2013-05-08 21:13:00,
2013-05-08 17:18:00,68.4,62.7,29.99,South,180,3.3,3.3,82,0.00,,BKN,0.13,WeatherDisplay:10.37,2013-05-08 21:18:00,
2013-05-08 17:23:00,68.0,62.6,29.99,ESE,112,2.7,3.5,83,0.00,,BKN,0.13,WeatherDisplay:10.37,2013-05-08 21:23:00,
2013-05-08 17:28:00,68.0,62.6,29.99,ESE,112,2.3,2.3,83,0.00,,BKN,0.13,WeatherDisplay:10.37,2013-05-08 21:28:00,
2013-05-08 17:33:00,67.6,62.6,29.99,ESE,112,2.1,2.3,84,0.00,,BKN,0.13,WeatherDisplay:10.37,2013-05-08 21:33:00,
2013-05-08 17:38:00,67.8,62.8,29.99,East,90,2.4,2.4,84,0.00,,BKN,0.13,WeatherDisplay:10.37,2013-05-08 21:38:00,
2013-05-08 17:43:00,68.0,63.0,29.99,ESE,112,1.8,3.5,84,0.00,,BKN,0.13,WeatherDisplay:10.37,2013-05-08 21:43:00,
2013-05-08 17:48:00,68.2,63.2,29.99,East,90,0.2,2.3,84,0.00,,BKN,0.13,WeatherDisplay:10.37,2013-05-08 21:48:00,
2013-05-08 17:53:00,68.2,63.2,29.99,East,90,2.2,2.3,84,0.00,,BKN,0.13,WeatherDisplay:10.37,2013-05-08 21:53:00,
2013-05-08 17:58:00,68.0,63.0,29.99,ESE,112,0.6,2.3,84,0.00,,BKN,0.13,WeatherDisplay:10.37,2013-05-08 21:58:00,
2013-05-08 18:04:00,68.0,63.3,29.99,East,90,0.4,1.1,85,0.00,,BKN,0.13,WeatherDisplay:10.37,2013-05-08 22:04:00,
2013-05-08 18:09:00,67.6,63.3,29.99,East,90,0.0,0.0,86,0.01,RA,BKN,0.14,WeatherDisplay:10.37,2013-05-08 22:09:00,
2013-05-08 18:14:00,66.9,63.2,29.98,East,90,0.0,0.0,88,0.01,RA,BKN,0.14,WeatherDisplay:10.37,2013-05-08 22:14:00,
2013-05-08 18:19:00,66.7,63.4,29.98,East,90,0.0,0.0,89,0.01,,BKN,0.14,WeatherDisplay:10.37,2013-05-08 22:19:00,
2013-05-08 18:24:00,66.4,63.1,29.98,NNE,22,1.5,1.7,89,0.01,,BKN,0.14,WeatherDisplay:10.37,2013-05-08 22:24:00,
2013-05-08 18:29:00,66.2,63.2,29.98,East,90,1.4,2.3,90,0.02,RA,BKN,0.15,WeatherDisplay:10.37,2013-05-08 22:29:00,
2013-05-08 18:34:00,66.0,63.0,29.98,East,90,1.8,2.3,90,0.02,RA,BKN,0.15,WeatherDisplay:10.37,2013-05-08 22:34:00,
2013-05-08 18:39:00,66.0,63.0,29.97,East,90,0.5,1.1,90,0.02,,BKN,0.15,WeatherDisplay:10.37,2013-05-08 22:39:00,
2013-05-08 18:44:00,65.8,62.8,29.97,East,90,1.8,2.3,90,0.02,,BKN,0.15,WeatherDisplay:10.37,2013-05-08 22:44:00,
2013-05-08 18:49:00,65.7,62.7,29.97,East,90,1.4,2.3,90,0.02,,BKN,0.15,WeatherDisplay:10.37,2013-05-08 22:49:00,
2013-05-08 18:54:00,65.3,62.3,29.97,East,90,1.9,2.3,90,0.02,,BKN,0.15,WeatherDisplay:10.37,2013-05-08 22:54:00,
2013-05-08 18:59:00,65.1,62.1,29.97,ENE,68,1.7,2.3,90,0.02,,BKN,0.15,WeatherDisplay:10.37,2013-05-08 22:59:00,
2013-05-08 19:04:00,65.1,62.1,29.97,ESE,112,0.1,1.1,90,0.02,,BKN,0.15,WeatherDisplay:10.37,2013-05-08 23:04:00,
2013-05-08 19:09:00,65.1,62.1,29.97,ESE,112,0.8,1.1,90,0.01,,BKN,0.15,WeatherDisplay:10.37,2013-05-08 23:09:00,
2013-05-08 19:14:00,64.6,61.6,29.95,NE,45,1.3,1.3,90,0.01,,BKN,0.15,WeatherDisplay:10.37,2013-05-08 23:14:00,
2013-05-08 19:19:00,64.4,61.4,29.95,East,90,1.9,2.3,90,0.01,,BKN,0.15,WeatherDisplay:10.37,2013-05-08 23:19:00,
2013-05-08 19:24:00,64.2,61.2,29.94,East,90,1.2,1.7,90,0.01,,BKN,0.15,WeatherDisplay:10.37,2013-05-08 23:24:00,
2013-05-08 19:29:00,63.9,60.9,29.94,East,90,0.9,2.3,90,0.00,,BKN,0.15,WeatherDisplay:10.37,2013-05-08 23:29:00,
2013-05-08 19:34:00,63.9,60.9,29.94,East,90,0.0,0.0,90,0.00,,BKN,0.15,WeatherDisplay:10.37,2013-05-08 23:34:00,
2013-05-08 19:39:00,63.5,60.8,29.94,East,90,1.4,1.4,91,0.00,,BKN,0.15,WeatherDisplay:10.37,2013-05-08 23:39:00,
2013-05-08 19:44:00,63.3,60.6,29.94,East,90,0.8,2.3,91,0.00,,BKN,0.15,WeatherDisplay:10.37,2013-05-08 23:44:00,
2013-05-08 19:49:00,63.1,60.7,29.94,East,90,0.0,0.0,92,0.00,,BKN,0.15,WeatherDisplay:10.37,2013-05-08 23:49:00,
2013-05-08 19:54:00,63.0,60.6,29.94,East,90,1.8,2.3,92,0.00,,BKN,0.15,WeatherDisplay:10.37,2013-05-08 23:54:00,
2013-05-08 19:59:00,62.8,60.7,29.94,East,90,0.0,1.1,93,0.00,,BKN,0.15,WeatherDisplay:10.37,2013-05-08 23:59:00,
2013-05-08 20:04:00,62.6,60.5,29.94,East,90,0.0,0.0,93,0.00,,BKN,0.15,WeatherDisplay:10.37,2013-05-09 00:04:00,
2013-05-08 20:09:00,62.4,60.3,29.94,East,90,0.0,0.0,93,0.00,,BKN,0.15,WeatherDisplay:10.37,2013-05-09 00:09:00,
2013-05-08 20:14:00,62.2,60.5,29.94,East,90,0.9,1.1,94,0.00,,BKN,0.15,WeatherDisplay:10.37,2013-05-09 00:14:00,
2013-05-08 20:19:00,62.2,60.5,29.94,East,90,0.0,0.0,94,0.00,,BKN,0.15,WeatherDisplay:10.37,2013-05-09 00:19:00,
2013-05-08 20:24:00,62.2,60.5,29.94,East,90,0.5,1.1,94,0.00,,BKN,0.15,WeatherDisplay:10.37,2013-05-09 00:24:00,
2013-05-08 20:29:00,62.2,60.5,29.94,East,90,1.3,1.3,94,0.00,,BKN,0.15,WeatherDisplay:10.37,2013-05-09 00:29:00,
2013-05-08 20:34:00,62.2,60.5,29.94,East,90,0.9,2.3,94,0.00,,BKN,0.15,WeatherDisplay:10.37,2013-05-09 00:34:00,
2013-05-08 20:39:00,62.2,60.5,29.94,East,90,1.3,2.3,94,0.00,,BKN,0.15,WeatherDisplay:10.37,2013-05-09 00:39:00,
2013-05-08 20:44:00,62.2,60.5,29.94,East,90,0.1,1.1,94,0.00,,BKN,0.15,WeatherDisplay:10.37,2013-05-09 00:44:00,
2013-05-08 20:49:00,62.2,60.5,29.94,East,90,0.3,1.1,94,0.00,,BKN,0.15,WeatherDisplay:10.37,2013-05-09 00:49:00,
2013-05-08 20:54:00,61.9,60.2,29.94,ESE,112,0.4,1.1,94,0.00,,BKN,0.15,WeatherDisplay:10.37,2013-05-09 00:54:00,
2013-05-08 20:59:00,61.9,60.2,29.95,East,90,1.5,1.7,94,0.00,,BKN,0.15,WeatherDisplay:10.37,2013-05-09 00:59:00,
2013-05-08 21:04:00,61.7,60.0,29.95,East,90,2.1,2.3,94,0.00,,BKN,0.15,WeatherDisplay:10.37,2013-05-09 01:04:00,
2013-05-08 21:09:00,61.7,60.0,29.95,East,90,1.8,2.3,94,0.00,,BKN,0.15,WeatherDisplay:10.37,2013-05-09 01:09:00,
2013-05-08 21:14:00,61.7,60.0,29.95,ESE,112,1.4,1.7,94,0.00,,BKN,0.15,WeatherDisplay:10.37,2013-05-09 01:14:00,
2013-05-08 21:19:00,61.5,59.8,29.95,ESE,112,1.6,2.3,94,0.00,,BKN,0.15,WeatherDisplay:10.37,2013-05-09 01:19:00,
2013-05-08 21:24:00,61.3,59.6,29.95,ESE,112,0.8,1.1,94,0.00,,BKN,0.15,WeatherDisplay:10.37,2013-05-09 01:24:00,
2013-05-08 21:29:00,61.2,59.5,29.95,ESE,112,1.1,2.3,94,0.00,,BKN,0.15,WeatherDisplay:10.37,2013-05-09 01:29:00,
2013-05-08 21:34:00,61.2,59.5,29.96,ESE,112,0.0,0.0,94,0.00,,BKN,0.15,WeatherDisplay:10.37,2013-05-09 01:34:00,
2013-05-08 21:39:00,61.0,59.6,29.96,ESE,112,1.6,1.7,95,0.00,,BKN,0.15,WeatherDisplay:10.37,2013-05-09 01:39:00,
2013-05-08 21:44:00,61.2,59.8,29.96,ESE,112,1.5,1.7,95,0.00,,BKN,0.15,WeatherDisplay:10.37,2013-05-09 01:44:00,
2013-05-08 21:49:00,61.2,59.8,29.96,ESE,112,2.2,2.3,95,0.00,,BKN,0.15,WeatherDisplay:10.37,2013-05-09 01:49:00,
2013-05-08 21:54:00,61.2,59.8,29.96,ESE,112,0.9,1.7,95,0.00,,BKN,0.15,WeatherDisplay:10.37,2013-05-09 01:54:00,
2013-05-08 21:59:00,61.2,59.8,29.96,ESE,112,0.7,2.7,95,0.00,,BKN,0.15,WeatherDisplay:10.37,2013-05-09 01:59:00,
2013-05-08 22:04:00,61.2,59.8,29.96,ESE,112,1.5,1.7,95,0.00,,BKN,0.15,WeatherDisplay:10.37,2013-05-09 02:04:00,
2013-05-08 22:09:00,61.2,59.8,29.96,East,90,0.2,1.1,95,0.00,,BKN,0.15,WeatherDisplay:10.37,2013-05-09 02:09:00,
2013-05-08 22:14:00,61.2,59.8,29.96,East,90,1.1,1.7,95,0.00,,BKN,0.15,WeatherDisplay:10.37,2013-05-09 02:14:00,
2013-05-08 22:19:00,61.2,59.8,29.96,NNW,338,0.5,2.7,95,0.00,,BKN,0.15,WeatherDisplay:10.37,2013-05-09 02:19:00,
2013-05-08 22:24:00,61.3,59.9,29.97,ESE,112,0.0,0.0,95,0.00,,BKN,0.15,WeatherDisplay:10.37,2013-05-09 02:24:00,
2013-05-08 22:29:00,61.3,59.9,29.97,ESE,112,1.4,1.4,95,0.00,,BKN,0.15,WeatherDisplay:10.37,2013-05-09 02:29:00,
2013-05-08 22:34:00,61.3,59.9,29.97,ESE,112,1.9,2.3,95,0.00,,BKN,0.15,WeatherDisplay:10.37,2013-05-09 02:34:00,
2013-05-08 22:39:00,61.3,59.9,29.96,ESE,112,2.3,2.3,95,0.00,,BKN,0.15,WeatherDisplay:10.37,2013-05-09 02:39:00,
2013-05-08 22:44:00,61.3,59.9,29.96,ESE,112,1.1,1.1,95,0.00,,BKN,0.15,WeatherDisplay:10.37,2013-05-09 02:44:00,
2013-05-08 22:49:00,61.3,59.9,29.96,ESE,112,0.9,2.3,95,0.00,,BKN,0.15,WeatherDisplay:10.37,2013-05-09 02:49:00,
2013-05-08 22:54:00,61.3,59.9,29.96,ESE,112,2.1,2.3,95,0.00,,BKN,0.15,WeatherDisplay:10.37,2013-05-09 02:54:00,
2013-05-08 22:59:00,61.3,59.9,29.97,East,90,1.8,2.3,95,0.00,,BKN,0.15,WeatherDisplay:10.37,2013-05-09 02:59:00,
2013-05-08 23:04:00,61.3,59.9,29.97,ESE,112,2.3,2.3,95,0.00,,BKN,0.15,WeatherDisplay:10.37,2013-05-09 03:04:00,
2013-05-08 23:09:00,61.3,59.9,29.97,ESE,112,1.5,1.5,95,0.00,,BKN,0.15,WeatherDisplay:10.37,2013-05-09 03:09:00,
2013-05-08 23:14:00,61.3,59.9,29.96,ESE,112,0.0,0.0,95,0.00,,BKN,0.15,WeatherDisplay:10.37,2013-05-09 03:14:00,
2013-05-08 23:19:00,61.2,59.8,29.96,ESE,112,0.1,1.1,95,0.00,,BKN,0.15,WeatherDisplay:10.37,2013-05-09 03:19:00,
2013-05-08 23:24:00,61.2,59.8,29.96,ESE,112,0.0,0.0,95,0.00,,BKN,0.15,WeatherDisplay:10.37,2013-05-09 03:24:00,
2013-05-08 23:29:00,61.0,59.6,29.96,ESE,112,0.5,2.3,95,0.00,,BKN,0.15,WeatherDisplay:10.37,2013-05-09 03:29:00,
2013-05-08 23:34:00,60.8,59.4,29.96,ESE,112,0.9,1.1,95,0.00,,BKN,0.15,WeatherDisplay:10.37,2013-05-09 03:34:00,
2013-05-08 23:39:00,60.8,59.4,29.96,ESE,112,1.5,1.5,95,0.00,,BKN,0.15,WeatherDisplay:10.37,2013-05-09 03:39:00,
2013-05-08 23:44:00,60.8,59.4,29.96,ESE,112,0.0,0.0,95,0.00,,BKN,0.15,WeatherDisplay:10.37,2013-05-09 03:44:00,
2013-05-08 23:49:00,60.6,59.2,29.95,ESE,112,0.0,0.0,95,0.00,,BKN,0.15,WeatherDisplay:10.37,2013-05-09 03:49:00,
2013-05-08 23:54:00,60.6,59.2,29.95,ESE,112,0.0,0.0,95,0.00,,BKN,0.15,WeatherDisplay:10.37,2013-05-09 03:54:00,
2013-05-08 23:59:00,60.4,59.0,29.95,ESE,112,0.0,0.0,95,0.00,,BKN,0.15,WeatherDisplay:10.37,2013-05-09 03:59:00,